Weather in Klaipeda

Lithuania     55°42′18″N   21°08′57″E
temp.,
°C
wind,
m/s
gust,
m/s
humid.,
%
clouds,
%
prec.,
mm/h
press.,
hPa
HPBL,
m
28 july, wed
wed2800:00+19ssw33895 0.0 1011105
03:00+19wsw479392 0.0 1010210
06:00+19wsw369239 0.0 1010155
09:00+23sw457073 0.4 1011458
12:00+25wsw5556100 0.1 1011861
15:00+24sw455871 0.1 1010571
18:00+25wsw345329 0.0 1009622
21:00+21sw71076100 0.3 1010421
29 july, thu
thu2900:00+18wsw4587100 0.3 1009149
03:00+19wsw359199 0.3 1008206
06:00+18wsw47880 0.0 1008244
09:00+21wsw57722 0.0 1008708
12:00+23sw79590 0.1 10081191
15:00+22wsw8106497 0.7 10081210
18:00+22w696188 0.1 1007980
21:00+19w7117044 0.4 1007919
30 july, fri
fri3000:00+19wsw710604 0.0 1007726
03:00+19wsw913585 0.1 10061160
06:00+19wsw912615 0.1 10051120
09:00+19wsw10136549 0.8 10051450
12:00+20wsw12145529 0.3 10051735
15:00+21wsw12145241 0.3 10051877
18:00+20wsw111755100 0.1 10041867
21:00+19wsw1216695 0.1 10031171
31 july, sat
sat3100:00+19wsw111576100 0.0 1003970
03:00+19wsw1013761 0.0 1004930
06:00+19wsw697419 0.0 1003507
09:00+21sw786286 0.0 10041097
12:00+22ssw685118 0.0 1004839
15:00+24wsw795071 0.0 10021298
18:00+19w58770 0.7 1002576
21:00+20wsw913645 0.9 10021100
1 august, sun
sun100:00+18wsw11157885 0.4 1003973
03:00+18wsw101383100 1.6 1003869
06:00+18wsw8128198 3.7 1003741
09:00+19w91163100 4.0 10041574
12:00+19wsw81063100 0.1 10061502
15:00+21w796091 0.4 10071463
18:00+20wsw686390 0.3 10071262
21:00+18wsw357259 0.3 1007312